Regional Weather Roundup
Issued by NWS Cleveland, OH

Home | Current Version | Previous Version | Text Only | Print | Product List | Glossary Off
Versions: 1 2 3 4 5 6 7 8 9 10 11 12 13 14 15 16 17 18 19 20 21 22 23 24 25 26 27 28 29 30 31 32 33 34 35 36 37 38 39 40 41 42 43 44 45 46 47 48 49 50

000
ASUS41 KCLE 221410
RWRCLE
OHIO REGIONAL WEATHER ROUNDUP
NATIONAL WEATHER SERVICE CLEVELAND, OH
1000 AM EDT FRI AUG 22 2014

NOTE: "FAIR" INDICATES FEW OR NO CLOUDS BELOW 12,000 FEET WITH NO
SIGNIFICANT WEATHER AND/OR OBSTRUCTIONS TO VISIBILITY.

OHZ001>008-015>018-024>027-034-035-043-044-221500-
   NORTHWEST OHIO

CITY           SKY/WX    TMP DP  RH WIND       PRES   REMARKS
DEFIANCE       CLOUDY    75  69  81 VRB3      29.99S
FINDLAY        PTSUNNY   76  69  79 CALM      29.98F
TOLEDO EXPRESS MOSUNNY   77  70  79 CALM      29.98S
TOLEDO EXEC    CLOUDY    76  69  79 S6        29.99S
LIMA           CLOUDY    75  71  87 S7        30.00R
$$

OHZ009>014-019>023-028>033-038-089-221500-
   NORTHEAST OHIO

CITY           SKY/WX    TMP DP  RH WIND       PRES   REMARKS
CLE-HOPKINS    MOSUNNY   77  71  82 VRB3      30.01F
CLE-LAKEFRONT  PTSUNNY   73  70  88 W3        29.97F
CUY CO. ARPT   LGT RAIN  73  72  94 W6        30.01S
LORAIN-ELYRIA  MOSUNNY   79  71  76 N5        30.00S
ASHTABULA      CLOUDY    72  69  90 SW6       30.02S
AKRON-CANTON   CLOUDY    72  68  87 CALM      30.02F FOG
WOOSTER        MOSUNNY   77  70  79 N3        30.02F
MANSFIELD      CLOUDY    74  69  85 W6        30.03S
YOUNGSTOWN     LGT RAIN  71  68  90 SW5       30.02S FOG
$$

OHZ042-051>053-060>062-070>072-077>081-221500-
  SOUTHWEST OHIO

CITY           SKY/WX    TMP DP  RH WIND       PRES   REMARKS
CINC-COVINGTON CLOUDY    76  72  87 W3        30.04R
CINC-LUNKEN    CLOUDY    74  72  93 CALM      30.03R
HAMILTON       CLOUDY    72  71  97 CALM      30.03F FOG
DAYTON         HVY RAIN  72  70  93 W10       30.05S FOG
WRIGHT-PAT AFB LGT RAIN  70  70 100 SW6       30.04R FOG
DAYTON GENERAL LGT RAIN  71  70  96 W3        30.04R FOG
WILMINGTON     LGT RAIN  72  70  93 SW3       30.02S FOG
$$

OHZ036-037-039>041-045>050-054>059-063>069-073>076-082>088-221500-
  CENTRAL AND SOUTHEAST OHIO

CITY           SKY/WX    TMP DP  RH WIND       PRES   REMARKS
COLUMBUS       CLOUDY    73  70  88 VRB3      30.02F
OSU AIRPORT    CLOUDY    72  69  90 SE5       30.02F FOG
BOLTON FIELD   CLOUDY    70  70 100 S3        30.04S
RICKENBACK AFB LGT RAIN  71  65  83 S3        30.02R
NEWARK         CLOUDY    72  69  90 S3        30.03S
MARION         CLOUDY    75  69  81 CALM      30.01F
LANCASTER      CLOUDY    73  68  84 CALM      30.04R
ZANESVILLE     CLOUDY    72  68  87 W3        30.03R
NEW PHILLY     CLOUDY    73  70  90 CALM      30.02F
$$



USA.gov is the U.S. government's official web portal to all federal, state and local government web resources and services.